Вернуться в каталог

ATLAS 5 CENTAUR DEB

АктивенHEO
NORAD 43988·DEBRIS·🇺🇸 United States

Запущен Sep 17, 2014 с Cape Canaveral Space Force Station

Loading…

Ближайшие Пролёты (ближайшие 24 часа)

TLE

СвежийSource: Space-Track

Эпоха: Sep 14, 2026, 00:43 UTC

1 43988U 14055AT  26257.03001901 -.00000114  00000-0  00000-0 0  9990
2 43988  20.3627 129.8940 4725966 190.5157 154.4060  1.87317249 55028

Отслеживайте ATLAS 5 CENTAUR DEB в реальном времени с AllMySat

Download on the App Store